IRIDIUM 33 DEB

Satellite information

Favourite Embed

Satellite Type and Status

DEBRISIN ORBIT

Key statistics

Satellite IRIDIUM 33 DEB at a glance.

Uptime

10318

Days in orbit

Revolutions

≈ 14.5

Per day

Orbit

LEO

Low Earth Orbit

Inclination

86.4

Latest

Satellite identification and parameters

Extended collection of information and parameters for IRIDIUM 33 DEB.

Object identification

Identified? True

Debris? True

Object name: IRIDIUM 33 DEB

International designator: 1997-051RD

Object number (NORAD): 35631

Object ID (CCSDS): 35631

Country: UNITED STATES OF AMERICA (US)

Current information (Y/N): Y

RCS size: SMALL

Orbital parameters

Period: 99.495 minutes

Inclination: 86.3675 deg

SMA: 7112.571 km

Apoapsis: 748.013 km

Periapsis: 720.859 km

RAAN: 20.7093 deg

Eccentricy: 0.00190886

Argument of periapsis: 116.1706 deg

Mean anomaly: 257.5485 deg

Mean motion: 14.47314352 rev/day

Mean motion (dot): 0.0000218 rev/day2

B* drag term: 0.00058903545 1/REarth

Two-line elements (TLE)

Creation date: Dec. 14, 2025, 3:07 a.m.

Reference frame: TEME

Reference center: EARTH

Epoch: Dec. 13, 2025, 8:35 a.m. UTC

TLE line 0: 0 IRIDIUM 33 DEB

TLE line 1: 1 35631U 97051RD 25347.35825164 .00002180 00000-0 58904-3 0 9995

TLE line 2: 2 35631 86.3675 20.7093 0019089 116.1706 257.5485 14.47314352872068

Live tracking on map

Real-time ground track for satellite IRIDIUM 33 DEB.

In-orbit conjunctions

A list of the most updated potential collisions computed for object IRIDIUM 33 DEB.

Target Orbit TCA Probability of collision Miss distance Type
CZ-6A DEB SSO 2025-07-30 09:30:25 0.0002248452 33.0 (m) DEBRIS
CZ-6A DEB LEO 2025-03-04 20:30:02 0.0001093919 333.0 (m) DEBRIS
DMSP 5D-2 F13 DEB SSO 2024-12-11 17:27:12 0.0001194106 77.0 (m) DEBRIS

Associated space launch

Iridium provides global mobile telecommunications services using a constellation of 66 low earth orbit satellites in a 86.4° inclined orbit. Although 77 satellites were originally envisioned for the system and spawned the name based on the 77th element in the periodic table, the system has been scaled back. Motorola's Satellite Communications Group designed and manufactured the Iridium satellites with Lockheed Martin providing the LM-700A spacecraft buses.

IRIDIUM 33 DEB was lifted into orbit during the mission ‘Proton-K/17S40 | Iridium 27 to 33’, on board a Proton-K/17S40 space rocket.

The launch took place on Sept. 14, 1997, 1:36 a.m. from 81/23 (81L).

For more information about the launch, click the button.

Launch to space Proton-K/17S40 | Iridium 27 to 33
Proton-K/17S40 | Iridium 27 to 33

Agency: N/A

Status: Launch Successful

Launch date: Sept. 14, 1997, 1:36 a.m. UTC

Rocket: Proton-K/17S40

Launch pad: 81/23 (81L)

Location: Baikonur Cosmodrome, Republic of Kazakhstan

...

Latest news about this satellite

There are no fresh news available about this satellite. Check back as we update our databases every day.


Newsletter sign-up

Weekly statistics, charts and insights to help you stay on top of the space industry.